This is the latest recevied weather packets stored in our database for station/object KM4CNW. If no packets are shown the sender has not sent any weather packets the latest 10 day(s).
| Time | Temp. | Humidity | Pressure | Rain* | Wind** | Luminosity | Snow |
|---|---|---|---|---|---|---|---|
| 1777915822 | 25° C | 29% | 1009.7 hPa | 0 mm | - | 912 W/m² | - |
| 1777915519 | 25° C | 28% | 1009.9 hPa | 0 mm | - | 909 W/m² | - |
| 1777915215 | 25° C | 29% | 1010.1 hPa | 0 mm | - | 909 W/m² | - |
| 1777914912 | 25° C | 30% | 1009.9 hPa | 0 mm | - | 910 W/m² | - |
| 1777914609 | 24.44° C | 29% | 1010.1 hPa | 0 mm | - | 907 W/m² | - |
| 1777914305 | 24.44° C | 29% | 1010 hPa | 0 mm | - | 906 W/m² | - |
| 1777914003 | 24.44° C | 29% | 1010.2 hPa | 0 mm | - | 899 W/m² | - |
| 1777913698 | 24.44° C | 28% | 1010.2 hPa | 0 mm | - | 902 W/m² | - |
| 1777913395 | 23.89° C | 30% | 1010 hPa | 0 mm | - | 894 W/m² | - |
| 1777913092 | 23.89° C | 31% | 1010.3 hPa | 0 mm | - | 885 W/m² | - |
| 1777912788 | 23.89° C | 27% | 1010.5 hPa | 0 mm | - | 889 W/m² | - |
| 1777912484 | 23.89° C | 28% | 1010.3 hPa | 0 mm | - | 883 W/m² | - |
| 1777912181 | 23.89° C | 31% | 1010.6 hPa | 0 mm | - | 877 W/m² | - |
| 1777911877 | 23.89° C | 28% | 1010.7 hPa | 0 mm | - | 872 W/m² | - |
| 1777911574 | 23.33° C | 31% | 1010.9 hPa | 0 mm | - | 868 W/m² | - |
| 1777911269 | 23.33° C | 30% | 1011.1 hPa | 0 mm | - | 863 W/m² | - |
| 1777910967 | 23.33° C | 29% | 1011.4 hPa | 0 mm | - | 852 W/m² | - |
| 1777910665 | 23.33° C | 32% | 1011.5 hPa | 0 mm | - | 847 W/m² | - |
| 1777910361 | 22.78° C | 32% | 1011.4 hPa | 0 mm | - | 836 W/m² | - |
| 1777910058 | 22.78° C | 30% | 1011.4 hPa | 0 mm | - | 825 W/m² | - |
| 1777909755 | 22.22° C | 32% | 1011.3 hPa | 0 mm | - | 810 W/m² | - |
| 1777909452 | 22.22° C | 32% | 1011.4 hPa | 0 mm | - | 807 W/m² | - |
| 1777909150 | 22.78° C | 32% | 1011.5 hPa | 0 mm | - | 799 W/m² | - |
| 1777908848 | 22.22° C | 33% | 1011.4 hPa | 0 mm | - | 788 W/m² | - |
| 1777908544 | 21.67° C | 32% | 1011.3 hPa | 0 mm | - | 776 W/m² | - |
* Rain latest hour (hover to see other rain measurements)
** Current wind speed in m/s (hover to see current wind gust speed)